ヴァルデス-トータス彗星

C/2014 HU195 ( Valdes-TOTAS )

English version
Home page
Updated on October 8, 2017

---------------------------------------------------------------------

・ プロフィール

発見日 2014年4月24日
発見光度 22.3等
発見者 Frank Valdes (DECam NEO Survey), Teide Observatory Tenerife Asteroid Survey (TOTAS)

・ 写真集

・ 軌道要素

Epoch 2015 May 18.0 TT = JDT 2457160.5
T 2015 May 18.04444 TT                                  MPCW
q   5.1211278            (2000.0)            P               Q
n   0.00967301     Peri.  145.07376     -0.15615295     +0.98350006
a  21.8153287      Node   115.78826     -0.92776253     -0.11431032
e   0.7652509      Incl.    5.82258     -0.33892911     -0.14021693
P 102
From 48 observations 2014 Apr. 24-2016 Oct. 29, mean residual 0".4.

・ 光度変化

        m1 = -2 + 5 logΔ + 25 log r(t - 300)

---------------------------------------------------------------------

軌道要素はM.P.E.C. 2016-V116に掲載されたものです。
光度グラフはComet for Windowsで作成したものです。

---------------------------------------------------------------------

Copyright(C) Seiichi Yoshida (comet@aerith.net). All rights reserved.